Year,Month,Day,Hour,Minute,Value (Times are PST for temperature in C)
2021,06,25,00,00,15.60
2021,06,25,00,01,15.60
2021,06,25,00,02,15.50
2021,06,25,00,03,15.50
2021,06,25,00,04,15.40
2021,06,25,00,05,15.40
2021,06,25,00,06,15.40
2021,06,25,00,07,15.30
2021,06,25,00,08,15.30
2021,06,25,00,09,15.30
2021,06,25,00,10,15.30
2021,06,25,00,11,15.30
2021,06,25,00,12,15.20
2021,06,25,00,13,15.20
2021,06,25,00,14,15.20
2021,06,25,00,15,15.20
2021,06,25,00,16,15.20
2021,06,25,00,17,15.20
2021,06,25,00,18,15.20
2021,06,25,00,19,15.20
2021,06,25,00,20,15.20
2021,06,25,00,21,15.20
2021,06,25,00,22,15.20
2021,06,25,00,23,15.20
2021,06,25,00,24,15.20
2021,06,25,00,25,15.20
2021,06,25,00,26,15.20
2021,06,25,00,27,15.20
2021,06,25,00,28,15.20
2021,06,25,00,29,15.20
2021,06,25,00,30,15.20
2021,06,25,00,31,15.20
2021,06,25,00,32,15.20
2021,06,25,00,33,15.20
2021,06,25,00,34,15.20
2021,06,25,00,35,15.20
2021,06,25,00,36,15.20
2021,06,25,00,37,15.20
2021,06,25,00,38,15.30
2021,06,25,00,39,15.30
2021,06,25,00,40,15.30
2021,06,25,00,41,15.30
2021,06,25,00,42,15.30
2021,06,25,00,43,15.30
2021,06,25,00,44,15.30
2021,06,25,00,45,15.30
2021,06,25,00,46,15.30
2021,06,25,00,47,15.30
2021,06,25,00,48,15.30
2021,06,25,00,49,15.30
2021,06,25,00,50,15.30
2021,06,25,00,51,15.30
2021,06,25,00,52,15.40
2021,06,25,00,53,15.40
2021,06,25,00,54,15.40
2021,06,25,00,55,15.40
2021,06,25,00,56,15.40
2021,06,25,00,57,15.50
2021,06,25,00,58,15.50
2021,06,25,00,59,15.50
2021,06,25,01,00,15.50
2021,06,25,01,01,15.50
2021,06,25,01,02,15.60
2021,06,25,01,03,15.60
2021,06,25,01,04,15.60
2021,06,25,01,05,15.60
2021,06,25,01,06,15.60
2021,06,25,01,07,15.70
2021,06,25,01,08,15.70
2021,06,25,01,09,15.70
2021,06,25,01,10,15.70
2021,06,25,01,11,15.80
2021,06,25,01,12,15.80
2021,06,25,01,13,15.80
2021,06,25,01,14,15.80
2021,06,25,01,15,15.90
2021,06,25,01,16,15.90
2021,06,25,01,17,15.90
2021,06,25,01,18,16.00
2021,06,25,01,19,16.00
2021,06,25,01,20,16.00
2021,06,25,01,21,16.10
2021,06,25,01,22,16.10
2021,06,25,01,23,16.10
2021,06,25,01,24,16.10
2021,06,25,01,25,16.10
2021,06,25,01,26,16.10
2021,06,25,01,27,16.10
2021,06,25,01,28,16.20
2021,06,25,01,29,16.20
2021,06,25,01,30,16.20
2021,06,25,01,31,16.20
2021,06,25,01,32,16.20
2021,06,25,01,33,16.20
2021,06,25,01,34,16.20
2021,06,25,01,35,16.30
2021,06,25,01,36,16.30
2021,06,25,01,37,16.30
2021,06,25,01,38,16.30
2021,06,25,01,39,16.30
2021,06,25,01,40,16.30
2021,06,25,01,41,16.30
2021,06,25,01,42,16.30
2021,06,25,01,43,16.30
2021,06,25,01,44,16.30
2021,06,25,01,45,16.30
2021,06,25,01,46,16.30
2021,06,25,01,47,16.40
2021,06,25,01,48,16.40
2021,06,25,01,49,16.40
2021,06,25,01,50,16.40
2021,06,25,01,51,16.40
2021,06,25,01,52,16.40
2021,06,25,01,53,16.40
2021,06,25,01,54,16.40
2021,06,25,01,55,16.40
2021,06,25,01,56,16.50
2021,06,25,01,57,16.50
2021,06,25,01,58,16.50
2021,06,25,01,59,16.60
2021,06,25,02,00,16.60
2021,06,25,02,01,16.60
2021,06,25,02,02,16.70
2021,06,25,02,03,16.70
2021,06,25,02,04,16.70
2021,06,25,02,05,16.70
2021,06,25,02,06,16.80
2021,06,25,02,07,16.80
2021,06,25,02,08,16.80
2021,06,25,02,09,16.80
2021,06,25,02,10,16.80
2021,06,25,02,11,16.80
2021,06,25,02,12,16.80
2021,06,25,02,13,16.90
2021,06,25,02,14,16.90
2021,06,25,02,15,16.90
2021,06,25,02,16,16.90
2021,06,25,02,17,16.90
2021,06,25,02,18,16.90
2021,06,25,02,19,16.90
2021,06,25,02,20,16.90
2021,06,25,02,21,16.90
2021,06,25,02,22,16.90
2021,06,25,02,23,16.90
2021,06,25,02,24,16.90
2021,06,25,02,25,16.90
2021,06,25,02,26,16.90
2021,06,25,02,27,16.90
2021,06,25,02,28,16.90
2021,06,25,02,29,16.90
2021,06,25,02,30,16.90
2021,06,25,02,31,16.90
2021,06,25,02,32,16.90
2021,06,25,02,33,16.90
2021,06,25,02,34,16.90
2021,06,25,02,35,16.90
2021,06,25,02,36,16.90
2021,06,25,02,37,16.90
2021,06,25,02,38,16.90
2021,06,25,02,39,16.90
2021,06,25,02,40,16.90
2021,06,25,02,41,16.80
2021,06,25,02,42,16.80
2021,06,25,02,43,16.80
2021,06,25,02,44,16.80
2021,06,25,02,45,16.70
2021,06,25,02,46,16.70
2021,06,25,02,47,16.70
2021,06,25,02,48,16.70
2021,06,25,02,49,16.70
2021,06,25,02,50,16.70
2021,06,25,02,51,16.70
2021,06,25,02,52,16.70
2021,06,25,02,53,16.70
2021,06,25,02,54,16.70
2021,06,25,02,55,16.70
2021,06,25,02,56,16.70
2021,06,25,02,57,16.70
2021,06,25,02,58,16.70
2021,06,25,02,59,16.60
2021,06,25,03,00,16.60
2021,06,25,03,01,16.60
2021,06,25,03,02,16.60
2021,06,25,03,03,16.60
2021,06,25,03,04,16.60
2021,06,25,03,05,16.60
2021,06,25,03,06,16.60
2021,06,25,03,07,16.60
2021,06,25,03,08,16.60
2021,06,25,03,09,16.60
2021,06,25,03,10,16.60
2021,06,25,03,11,16.60
2021,06,25,03,12,16.60
2021,06,25,03,13,16.60
2021,06,25,03,14,16.70
2021,06,25,03,15,16.70
2021,06,25,03,16,16.70
2021,06,25,03,17,16.70
2021,06,25,03,18,16.70
2021,06,25,03,19,16.80
2021,06,25,03,20,16.80
2021,06,25,03,21,16.80
2021,06,25,03,22,16.80
2021,06,25,03,23,16.90
2021,06,25,03,24,16.90
2021,06,25,03,25,16.90
2021,06,25,03,26,16.90
2021,06,25,03,27,16.90
2021,06,25,03,28,16.90
2021,06,25,03,29,16.90
2021,06,25,03,30,16.90
2021,06,25,03,31,16.90
2021,06,25,03,32,16.90
2021,06,25,03,33,16.90
2021,06,25,03,34,16.90
2021,06,25,03,35,16.90
2021,06,25,03,36,16.80
2021,06,25,03,37,16.80
2021,06,25,03,38,16.80
2021,06,25,03,39,16.80
2021,06,25,03,40,16.80
2021,06,25,03,41,16.80
2021,06,25,03,42,16.80
2021,06,25,03,43,16.70
2021,06,25,03,44,16.70
2021,06,25,03,45,16.70
2021,06,25,03,46,16.70
2021,06,25,03,47,16.70
2021,06,25,03,48,16.70
2021,06,25,03,49,16.70
2021,06,25,03,50,16.60
2021,06,25,03,51,16.60
2021,06,25,03,52,16.60
2021,06,25,03,53,16.50
2021,06,25,03,54,16.50
2021,06,25,03,55,16.50
2021,06,25,03,56,16.40
2021,06,25,03,57,16.40
2021,06,25,03,58,16.40
2021,06,25,03,59,16.30
2021,06,25,04,00,16.30
2021,06,25,04,01,16.30
2021,06,25,04,02,16.30
2021,06,25,04,03,16.30
2021,06,25,04,04,16.30
2021,06,25,04,05,16.20
2021,06,25,04,06,16.20
2021,06,25,04,07,16.20
2021,06,25,04,08,16.20
2021,06,25,04,09,16.20
2021,06,25,04,10,16.20
2021,06,25,04,11,16.20
2021,06,25,04,12,16.20
2021,06,25,04,13,16.20
2021,06,25,04,14,16.20
2021,06,25,04,15,16.20
2021,06,25,04,16,16.20
2021,06,25,04,17,16.20
2021,06,25,04,18,16.20
2021,06,25,04,19,16.20
2021,06,25,04,20,16.20
2021,06,25,04,21,16.20
2021,06,25,04,22,16.20
2021,06,25,04,23,16.30
2021,06,25,04,24,16.30
2021,06,25,04,25,16.30
2021,06,25,04,26,16.30
2021,06,25,04,27,16.30
2021,06,25,04,28,16.30
2021,06,25,04,29,16.30
2021,06,25,04,30,16.30
2021,06,25,04,31,16.30
2021,06,25,04,32,16.30
2021,06,25,04,33,16.30
2021,06,25,04,34,16.20
2021,06,25,04,35,16.20
2021,06,25,04,36,16.20
2021,06,25,04,37,16.20
2021,06,25,04,38,16.20
2021,06,25,04,39,16.20
2021,06,25,04,40,16.20
2021,06,25,04,41,16.20
2021,06,25,04,42,16.20
2021,06,25,04,43,16.20
2021,06,25,04,44,16.20
2021,06,25,04,45,16.10
2021,06,25,04,46,16.10
2021,06,25,04,47,16.10
2021,06,25,04,48,16.10
2021,06,25,04,49,16.00
2021,06,25,04,50,16.00
2021,06,25,04,51,16.00
2021,06,25,04,52,15.90
2021,06,25,04,53,15.90
2021,06,25,04,54,15.90
2021,06,25,04,55,15.90
2021,06,25,04,56,15.80
2021,06,25,04,57,15.80
2021,06,25,04,58,15.80
2021,06,25,04,59,15.80
2021,06,25,05,00,15.80
2021,06,25,05,01,15.70
2021,06,25,05,02,15.70
2021,06,25,05,03,15.70
2021,06,25,05,04,15.70
2021,06,25,05,05,15.70
2021,06,25,05,06,15.60
2021,06,25,05,07,15.60
2021,06,25,05,08,15.60
2021,06,25,05,09,15.60
2021,06,25,05,10,15.60
2021,06,25,05,11,15.50
2021,06,25,05,12,15.50
2021,06,25,05,13,15.50
2021,06,25,05,14,15.40
2021,06,25,05,15,15.40
2021,06,25,05,16,15.30
2021,06,25,05,17,15.30
2021,06,25,05,18,15.30
2021,06,25,05,19,15.20
2021,06,25,05,20,15.20
2021,06,25,05,21,15.10
2021,06,25,05,22,15.10
2021,06,25,05,23,15.10
2021,06,25,05,24,15.10
2021,06,25,05,25,15.00
2021,06,25,05,26,15.00
2021,06,25,05,27,14.90
2021,06,25,05,28,14.90
2021,06,25,05,29,14.90
2021,06,25,05,30,14.90
2021,06,25,05,31,14.90
2021,06,25,05,32,14.80
2021,06,25,05,33,14.80
2021,06,25,05,34,14.80
2021,06,25,05,35,14.80
2021,06,25,05,36,14.80
2021,06,25,05,37,14.70
2021,06,25,05,38,14.70
2021,06,25,05,39,14.70
2021,06,25,05,40,14.70
2021,06,25,05,41,14.70
2021,06,25,05,42,14.60
2021,06,25,05,43,14.60
2021,06,25,05,44,14.60
2021,06,25,05,45,14.60
2021,06,25,05,46,14.50
2021,06,25,05,47,14.50
2021,06,25,05,48,14.40
2021,06,25,05,49,14.40
2021,06,25,05,50,14.40
2021,06,25,05,51,14.30
2021,06,25,05,52,14.30
2021,06,25,05,53,14.30
2021,06,25,05,54,14.20
2021,06,25,05,55,14.20
2021,06,25,05,56,14.20
2021,06,25,05,57,14.20
2021,06,25,05,58,14.20
2021,06,25,05,59,14.30
2021,06,25,06,00,14.30
2021,06,25,06,01,14.30
2021,06,25,06,02,14.30
2021,06,25,06,03,14.30
2021,06,25,06,04,14.40
2021,06,25,06,05,14.40
2021,06,25,06,06,14.40
2021,06,25,06,07,14.50
2021,06,25,06,08,14.50
2021,06,25,06,09,14.50
2021,06,25,06,10,14.60
2021,06,25,06,11,14.60
2021,06,25,06,12,14.60
2021,06,25,06,13,14.60
2021,06,25,06,14,14.60
2021,06,25,06,15,14.60
2021,06,25,06,16,14.70
2021,06,25,06,17,14.70
2021,06,25,06,18,14.70
2021,06,25,06,19,14.70
2021,06,25,06,20,14.70
2021,06,25,06,21,14.70
2021,06,25,06,22,14.70
2021,06,25,06,23,14.80
2021,06,25,06,24,14.80
2021,06,25,06,25,14.80
2021,06,25,06,26,14.80
2021,06,25,06,27,14.80
2021,06,25,06,28,14.90
2021,06,25,06,29,14.90
2021,06,25,06,30,14.90
2021,06,25,06,31,14.90
2021,06,25,06,32,15.00
2021,06,25,06,33,15.00
2021,06,25,06,34,15.10
2021,06,25,06,35,15.10
2021,06,25,06,36,15.20
2021,06,25,06,37,15.20
2021,06,25,06,38,15.20
2021,06,25,06,39,15.30
2021,06,25,06,40,15.30
2021,06,25,06,41,15.30
2021,06,25,06,42,15.40
2021,06,25,06,43,15.40
2021,06,25,06,44,15.50
2021,06,25,06,45,15.60
2021,06,25,06,46,15.70
2021,06,25,06,47,15.80
2021,06,25,06,48,15.90
2021,06,25,06,49,15.90
2021,06,25,06,50,16.00
2021,06,25,06,51,16.10
2021,06,25,06,52,16.20
2021,06,25,06,53,16.20
2021,06,25,06,54,16.30
2021,06,25,06,55,16.40
2021,06,25,06,56,16.50
2021,06,25,06,57,16.60
2021,06,25,06,58,16.70
2021,06,25,06,59,16.80
2021,06,25,07,00,17.00
2021,06,25,07,01,17.10
2021,06,25,07,02,17.20
2021,06,25,07,03,17.30
2021,06,25,07,04,17.40
2021,06,25,07,05,17.50
2021,06,25,07,06,17.60
2021,06,25,07,07,17.70
2021,06,25,07,08,17.80
2021,06,25,07,09,17.90
2021,06,25,07,10,18.10
2021,06,25,07,11,18.20
2021,06,25,07,12,18.30
2021,06,25,07,13,18.30
2021,06,25,07,14,18.40
2021,06,25,07,15,18.50
2021,06,25,07,16,18.60
2021,06,25,07,17,18.60
2021,06,25,07,18,18.70
2021,06,25,07,19,18.70
2021,06,25,07,20,18.80
2021,06,25,07,21,18.80
2021,06,25,07,22,18.80
2021,06,25,07,23,18.80
2021,06,25,07,24,18.80
2021,06,25,07,25,18.90
2021,06,25,07,26,18.80
2021,06,25,07,27,18.80
2021,06,25,07,28,18.80
2021,06,25,07,29,18.80
2021,06,25,07,30,18.80
2021,06,25,07,31,18.80
2021,06,25,07,32,18.80
2021,06,25,07,33,18.80
2021,06,25,07,34,18.90
2021,06,25,07,35,18.90
2021,06,25,07,36,19.00
2021,06,25,07,37,19.10
2021,06,25,07,38,19.10
2021,06,25,07,39,19.20
2021,06,25,07,40,19.20
2021,06,25,07,41,19.30
2021,06,25,07,42,19.30
2021,06,25,07,43,19.40
2021,06,25,07,44,19.40
2021,06,25,07,45,19.50
2021,06,25,07,46,19.50
2021,06,25,07,47,19.60
2021,06,25,07,48,19.60
2021,06,25,07,49,19.60
2021,06,25,07,50,19.70
2021,06,25,07,51,19.70
2021,06,25,07,52,19.80
2021,06,25,07,53,19.80
2021,06,25,07,54,19.80
2021,06,25,07,55,19.90
2021,06,25,07,56,19.90
2021,06,25,07,57,19.90
2021,06,25,07,58,19.90
2021,06,25,07,59,19.90
2021,06,25,08,00,19.90
2021,06,25,08,01,20.00
2021,06,25,08,02,20.00
2021,06,25,08,03,20.00
2021,06,25,08,04,20.00
2021,06,25,08,05,20.00
2021,06,25,08,06,20.00
2021,06,25,08,07,20.10
2021,06,25,08,08,20.10
2021,06,25,08,09,20.10
2021,06,25,08,10,20.10
2021,06,25,08,11,20.10
2021,06,25,08,12,20.20
2021,06,25,08,13,20.20
2021,06,25,08,14,20.20
2021,06,25,08,15,20.30
2021,06,25,08,16,20.40
2021,06,25,08,17,20.40
2021,06,25,08,18,20.50
2021,06,25,08,19,20.50
2021,06,25,08,20,20.60
2021,06,25,08,21,20.70
2021,06,25,08,22,20.80
2021,06,25,08,23,20.90
2021,06,25,08,24,21.00
2021,06,25,08,25,21.00
2021,06,25,08,26,21.10
2021,06,25,08,27,21.10
2021,06,25,08,28,21.10
2021,06,25,08,29,21.10
2021,06,25,08,30,21.10
2021,06,25,08,31,21.10
2021,06,25,08,32,21.10
2021,06,25,08,33,21.10
2021,06,25,08,34,21.10
2021,06,25,08,35,21.10
2021,06,25,08,36,21.20
2021,06,25,08,37,21.20
2021,06,25,08,38,21.20
2021,06,25,08,39,21.30
2021,06,25,08,40,21.30
2021,06,25,08,41,21.30
2021,06,25,08,42,21.40
2021,06,25,08,43,21.40
2021,06,25,08,44,21.50
2021,06,25,08,45,21.50
2021,06,25,08,46,21.60
2021,06,25,08,47,21.60
2021,06,25,08,48,21.70
2021,06,25,08,49,21.80
2021,06,25,08,50,21.90
2021,06,25,08,51,22.00
2021,06,25,08,52,22.10
2021,06,25,08,53,22.20
2021,06,25,08,54,22.30
2021,06,25,08,55,22.40
2021,06,25,08,56,22.40
2021,06,25,08,57,22.50
2021,06,25,08,58,22.50
2021,06,25,08,59,22.60
2021,06,25,09,00,22.60
2021,06,25,09,01,22.70
2021,06,25,09,02,22.70
2021,06,25,09,03,22.80
2021,06,25,09,04,22.80
2021,06,25,09,05,22.80
2021,06,25,09,06,22.90
2021,06,25,09,07,22.90
2021,06,25,09,08,22.90
2021,06,25,09,09,22.90
2021,06,25,09,10,22.90
2021,06,25,09,11,23.00
2021,06,25,09,12,23.10
2021,06,25,09,13,23.20
2021,06,25,09,14,23.20
2021,06,25,09,15,23.20
2021,06,25,09,16,23.30
2021,06,25,09,17,23.30
2021,06,25,09,18,23.30
2021,06,25,09,19,23.30
2021,06,25,09,20,23.30
2021,06,25,09,21,23.40
2021,06,25,09,22,23.40
2021,06,25,09,23,23.40
2021,06,25,09,24,23.50
2021,06,25,09,25,23.50
2021,06,25,09,26,23.50
2021,06,25,09,27,23.50
2021,06,25,09,28,23.40
2021,06,25,09,29,23.40
2021,06,25,09,30,23.40
2021,06,25,09,31,23.40
2021,06,25,09,32,23.40
2021,06,25,09,33,23.50
2021,06,25,09,34,23.50
2021,06,25,09,35,23.40
2021,06,25,09,36,23.40
2021,06,25,09,37,23.40
2021,06,25,09,38,23.30
2021,06,25,09,39,23.30
2021,06,25,09,40,23.20
2021,06,25,09,41,23.20
2021,06,25,09,42,23.10
2021,06,25,09,43,23.10
2021,06,25,09,44,23.00
2021,06,25,09,45,23.00
2021,06,25,09,46,23.00
2021,06,25,09,47,22.90
2021,06,25,09,48,22.90
2021,06,25,09,49,22.90
2021,06,25,09,50,22.90
2021,06,25,09,51,22.90
2021,06,25,09,52,22.90
2021,06,25,09,53,22.90
2021,06,25,09,54,22.90
2021,06,25,09,55,22.90
2021,06,25,09,56,22.90
2021,06,25,09,57,22.90
2021,06,25,09,58,22.90
2021,06,25,09,59,22.80
2021,06,25,10,00,22.80
2021,06,25,10,01,22.80
2021,06,25,10,02,22.70
2021,06,25,10,03,22.70
2021,06,25,10,04,22.60
2021,06,25,10,05,22.60
2021,06,25,10,06,22.50
2021,06,25,10,07,22.40
2021,06,25,10,08,22.40
2021,06,25,10,09,22.30
2021,06,25,10,10,22.30
2021,06,25,10,11,22.20
2021,06,25,10,12,22.20
2021,06,25,10,13,22.20
2021,06,25,10,14,22.20
2021,06,25,10,15,22.20
2021,06,25,10,16,22.30
2021,06,25,10,17,22.30
2021,06,25,10,18,22.30
2021,06,25,10,19,22.40
2021,06,25,10,20,22.40
2021,06,25,10,21,22.40
2021,06,25,10,22,22.40
2021,06,25,10,23,22.40
2021,06,25,10,24,22.40
2021,06,25,10,25,22.50
2021,06,25,10,26,22.60
2021,06,25,10,27,22.70
2021,06,25,10,28,22.80
2021,06,25,10,29,22.90
2021,06,25,10,30,22.90
2021,06,25,10,31,23.00
2021,06,25,10,32,23.10
2021,06,25,10,33,23.10
2021,06,25,10,34,23.00
2021,06,25,10,35,23.00
2021,06,25,10,36,22.90
2021,06,25,10,37,22.70
2021,06,25,10,38,22.60
2021,06,25,10,39,22.60
2021,06,25,10,40,22.60
2021,06,25,10,41,22.70
2021,06,25,10,42,22.80
2021,06,25,10,43,22.90
2021,06,25,10,44,23.00
2021,06,25,10,45,23.10
2021,06,25,10,46,23.20
2021,06,25,10,47,23.30
2021,06,25,10,48,23.30
2021,06,25,10,49,23.40
2021,06,25,10,50,23.50
2021,06,25,10,51,23.60
2021,06,25,10,52,23.70
2021,06,25,10,53,23.80
2021,06,25,10,54,23.80
2021,06,25,10,55,23.80
2021,06,25,10,56,23.80
2021,06,25,10,57,23.80
2021,06,25,10,58,23.70
2021,06,25,10,59,23.70
2021,06,25,11,00,23.60
2021,06,25,11,01,23.60
2021,06,25,11,02,23.70
2021,06,25,11,03,23.70
2021,06,25,11,04,23.80
2021,06,25,11,05,23.80
2021,06,25,11,06,23.80
2021,06,25,11,07,23.90
2021,06,25,11,08,23.90
2021,06,25,11,09,24.00
2021,06,25,11,10,24.10
2021,06,25,11,11,24.20
2021,06,25,11,12,24.20
2021,06,25,11,13,24.30
2021,06,25,11,14,24.30
2021,06,25,11,15,24.40
2021,06,25,11,16,24.40
2021,06,25,11,17,24.40
2021,06,25,11,18,24.40
2021,06,25,11,19,24.20
2021,06,25,11,20,24.10
2021,06,25,11,21,23.90
2021,06,25,11,22,23.70
2021,06,25,11,23,23.60
2021,06,25,11,24,23.60
2021,06,25,11,25,23.50
2021,06,25,11,26,23.50
2021,06,25,11,27,23.50
2021,06,25,11,28,23.50
2021,06,25,11,29,23.50
2021,06,25,11,30,23.60
2021,06,25,11,31,23.70
2021,06,25,11,32,23.70
2021,06,25,11,33,23.70
2021,06,25,11,34,23.70
2021,06,25,11,35,23.70
2021,06,25,11,36,23.60
2021,06,25,11,37,23.60
2021,06,25,11,38,23.60
2021,06,25,11,39,23.60
2021,06,25,11,40,23.50
2021,06,25,11,41,23.50
2021,06,25,11,42,23.50
2021,06,25,11,43,23.50
2021,06,25,11,44,23.40
2021,06,25,11,45,23.50
2021,06,25,11,46,23.50
2021,06,25,11,47,23.60
2021,06,25,11,48,23.70
2021,06,25,11,49,23.80
2021,06,25,11,50,23.80
2021,06,25,11,51,23.90
2021,06,25,11,52,23.90
2021,06,25,11,53,23.90
2021,06,25,11,54,23.80
2021,06,25,11,55,23.80
2021,06,25,11,56,23.80
2021,06,25,11,57,23.90
2021,06,25,11,58,23.90
2021,06,25,11,59,23.90
2021,06,25,12,00,23.90
2021,06,25,12,01,23.90
2021,06,25,12,02,23.80
2021,06,25,12,03,23.80
2021,06,25,12,04,23.80
2021,06,25,12,05,23.80
2021,06,25,12,06,23.90
2021,06,25,12,07,23.90
2021,06,25,12,08,24.00
2021,06,25,12,09,24.00
2021,06,25,12,10,24.00
2021,06,25,12,11,24.00
2021,06,25,12,12,24.00
2021,06,25,12,13,23.90
2021,06,25,12,14,23.80
2021,06,25,12,15,23.80
2021,06,25,12,16,23.80
2021,06,25,12,17,23.80
2021,06,25,12,18,23.80
2021,06,25,12,19,23.80
2021,06,25,12,20,23.90
2021,06,25,12,21,23.90
2021,06,25,12,22,24.00
2021,06,25,12,23,24.00
2021,06,25,12,24,24.00
2021,06,25,12,25,24.00
2021,06,25,12,26,24.00
2021,06,25,12,27,23.90
2021,06,25,12,28,24.00
2021,06,25,12,29,24.10
2021,06,25,12,30,24.20
2021,06,25,12,31,24.30
2021,06,25,12,32,24.30
2021,06,25,12,33,24.30
2021,06,25,12,34,24.30
2021,06,25,12,35,24.30
2021,06,25,12,36,24.20
2021,06,25,12,37,24.20
2021,06,25,12,38,24.30
2021,06,25,12,39,24.30
2021,06,25,12,40,24.40
2021,06,25,12,41,24.40
2021,06,25,12,42,24.60
2021,06,25,12,43,24.70
2021,06,25,12,44,24.70
2021,06,25,12,45,24.80
2021,06,25,12,46,24.80
2021,06,25,12,47,24.90
2021,06,25,12,48,24.90
2021,06,25,12,49,24.90
2021,06,25,12,50,24.90
2021,06,25,12,51,24.90
2021,06,25,12,52,25.00
2021,06,25,12,53,25.00
2021,06,25,12,54,25.10
2021,06,25,12,55,25.20
2021,06,25,12,56,25.20
2021,06,25,12,57,25.30
2021,06,25,12,58,25.30
2021,06,25,12,59,25.20
2021,06,25,13,00,25.00
2021,06,25,13,01,24.80
2021,06,25,13,02,24.60
2021,06,25,13,03,24.40
2021,06,25,13,04,24.30
2021,06,25,13,05,24.30
2021,06,25,13,06,24.40
2021,06,25,13,07,24.50
2021,06,25,13,08,24.60
2021,06,25,13,09,24.80
2021,06,25,13,10,24.90
2021,06,25,13,11,25.10
2021,06,25,13,12,25.30
2021,06,25,13,13,25.30
2021,06,25,13,14,25.30
2021,06,25,13,15,25.30
2021,06,25,13,16,25.30
2021,06,25,13,17,25.30
2021,06,25,13,18,25.40
2021,06,25,13,19,25.50
2021,06,25,13,20,25.50
2021,06,25,13,21,25.60
2021,06,25,13,22,25.70
2021,06,25,13,23,25.90
2021,06,25,13,24,26.00
2021,06,25,13,25,26.10
2021,06,25,13,26,26.30
2021,06,25,13,27,26.40
2021,06,25,13,28,26.60
2021,06,25,13,29,26.70
2021,06,25,13,30,26.90
2021,06,25,13,31,27.00
2021,06,25,13,32,27.10
2021,06,25,13,33,27.20
2021,06,25,13,34,27.20
2021,06,25,13,35,27.20
2021,06,25,13,36,27.10
2021,06,25,13,37,27.10
2021,06,25,13,38,27.10
2021,06,25,13,39,27.00
2021,06,25,13,40,26.90
2021,06,25,13,41,27.00
2021,06,25,13,42,27.10
2021,06,25,13,43,27.10
2021,06,25,13,44,27.20
2021,06,25,13,45,27.30
2021,06,25,13,46,27.30
2021,06,25,13,47,27.30
2021,06,25,13,48,27.40
2021,06,25,13,49,27.50
2021,06,25,13,50,27.60
2021,06,25,13,51,27.70
2021,06,25,13,52,27.90
2021,06,25,13,53,28.00
2021,06,25,13,54,28.10
2021,06,25,13,55,28.10
2021,06,25,13,56,28.00
2021,06,25,13,57,27.80
2021,06,25,13,58,27.60
2021,06,25,13,59,27.50
2021,06,25,14,00,27.30
2021,06,25,14,01,27.10
2021,06,25,14,02,27.00
2021,06,25,14,03,27.00
2021,06,25,14,04,26.90
2021,06,25,14,05,27.00
2021,06,25,14,06,27.10
2021,06,25,14,07,27.20
2021,06,25,14,08,27.40
2021,06,25,14,09,27.60
2021,06,25,14,10,27.80
2021,06,25,14,11,27.70
2021,06,25,14,12,27.50
2021,06,25,14,13,27.20
2021,06,25,14,14,27.00
2021,06,25,14,15,26.80
2021,06,25,14,16,26.60
2021,06,25,14,17,26.40
2021,06,25,14,18,26.40
2021,06,25,14,19,26.40
2021,06,25,14,20,26.50
2021,06,25,14,21,26.60
2021,06,25,14,22,26.70
2021,06,25,14,23,26.70
2021,06,25,14,24,26.70
2021,06,25,14,25,26.60
2021,06,25,14,26,26.60
2021,06,25,14,27,26.50
2021,06,25,14,28,26.40
2021,06,25,14,29,26.30
2021,06,25,14,30,26.40
2021,06,25,14,31,26.40
2021,06,25,14,32,26.40
2021,06,25,14,33,26.40
2021,06,25,14,34,26.40
2021,06,25,14,35,26.40
2021,06,25,14,36,26.40
2021,06,25,14,37,26.50
2021,06,25,14,38,26.40
2021,06,25,14,39,26.40
2021,06,25,14,40,26.50
2021,06,25,14,41,26.50
2021,06,25,14,42,26.60
2021,06,25,14,43,26.60
2021,06,25,14,44,26.60
2021,06,25,14,45,26.60
2021,06,25,14,46,26.70
2021,06,25,14,47,26.70
2021,06,25,14,48,26.80
2021,06,25,14,49,26.90
2021,06,25,14,50,27.00
2021,06,25,14,51,27.20
2021,06,25,14,52,27.20
2021,06,25,14,53,27.30
2021,06,25,14,54,27.30
2021,06,25,14,55,27.30
2021,06,25,14,56,27.40
2021,06,25,14,57,27.40
2021,06,25,14,58,27.40
2021,06,25,14,59,27.40
2021,06,25,15,00,27.40
2021,06,25,15,01,27.40
2021,06,25,15,02,27.50
2021,06,25,15,03,27.60
2021,06,25,15,04,27.70
2021,06,25,15,05,27.80
2021,06,25,15,06,27.90
2021,06,25,15,07,28.10
2021,06,25,15,08,28.10
2021,06,25,15,09,28.20
2021,06,25,15,10,28.20
2021,06,25,15,11,28.20
2021,06,25,15,12,28.30
2021,06,25,15,13,28.20
2021,06,25,15,14,28.20
2021,06,25,15,15,28.20
2021,06,25,15,16,28.20
2021,06,25,15,17,28.20
2021,06,25,15,18,28.30
2021,06,25,15,19,28.40
2021,06,25,15,20,28.40
2021,06,25,15,21,28.50
2021,06,25,15,22,28.50
2021,06,25,15,23,28.60
2021,06,25,15,24,28.60
2021,06,25,15,25,28.60
2021,06,25,15,26,28.70
2021,06,25,15,27,28.70
2021,06,25,15,28,28.80
2021,06,25,15,29,28.90
2021,06,25,15,30,28.90
2021,06,25,15,31,29.00
2021,06,25,15,32,29.00
2021,06,25,15,33,29.10
2021,06,25,15,34,29.20
2021,06,25,15,35,29.30
2021,06,25,15,36,29.30
2021,06,25,15,37,29.50
2021,06,25,15,38,29.60
2021,06,25,15,39,29.60
2021,06,25,15,40,29.70
2021,06,25,15,41,29.90
2021,06,25,15,42,30.00
2021,06,25,15,43,30.00
2021,06,25,15,44,30.00
2021,06,25,15,45,29.90
2021,06,25,15,46,29.80
2021,06,25,15,47,29.80
2021,06,25,15,48,29.70
2021,06,25,15,49,29.60
2021,06,25,15,50,29.50
2021,06,25,15,51,29.30
2021,06,25,15,52,29.20
2021,06,25,15,53,29.20
2021,06,25,15,54,29.10
2021,06,25,15,55,29.20
2021,06,25,15,56,29.10
2021,06,25,15,57,29.10
2021,06,25,15,58,29.10
2021,06,25,15,59,29.10
2021,06,25,16,00,29.10
2021,06,25,16,01,29.20
2021,06,25,16,02,29.20
2021,06,25,16,03,29.20
2021,06,25,16,04,29.40
2021,06,25,16,05,29.50
2021,06,25,16,06,29.50
2021,06,25,16,07,29.60
2021,06,25,16,08,29.70
2021,06,25,16,09,29.80
2021,06,25,16,10,29.80
2021,06,25,16,11,29.80
2021,06,25,16,12,29.90
2021,06,25,16,13,30.00
2021,06,25,16,14,30.10
2021,06,25,16,15,30.20
2021,06,25,16,16,30.30
2021,06,25,16,17,30.40
2021,06,25,16,18,30.50
2021,06,25,16,19,30.60
2021,06,25,16,20,30.70
2021,06,25,16,21,30.70
2021,06,25,16,22,30.70
2021,06,25,16,23,30.60
2021,06,25,16,24,30.60
2021,06,25,16,25,30.60
2021,06,25,16,26,30.60
2021,06,25,16,27,30.70
2021,06,25,16,28,30.80
2021,06,25,16,29,30.80
2021,06,25,16,30,30.80
2021,06,25,16,31,30.80
2021,06,25,16,32,30.90
2021,06,25,16,33,30.90
2021,06,25,16,34,30.90
2021,06,25,16,35,30.80
2021,06,25,16,36,30.80
2021,06,25,16,37,30.80
2021,06,25,16,38,30.80
2021,06,25,16,39,30.80
2021,06,25,16,40,30.80
2021,06,25,16,41,30.90
2021,06,25,16,42,30.90
2021,06,25,16,43,30.90
2021,06,25,16,44,30.80
2021,06,25,16,45,30.80
2021,06,25,16,46,30.70
2021,06,25,16,47,30.60
2021,06,25,16,48,30.50
2021,06,25,16,49,30.40
2021,06,25,16,50,30.40
2021,06,25,16,51,30.40
2021,06,25,16,52,30.40
2021,06,25,16,53,30.40
2021,06,25,16,54,30.50
2021,06,25,16,55,30.60
2021,06,25,16,56,30.60
2021,06,25,16,57,30.70
2021,06,25,16,58,30.80
2021,06,25,16,59,30.80
2021,06,25,17,00,30.90
2021,06,25,17,01,30.90
2021,06,25,17,02,30.90
2021,06,25,17,03,30.90
2021,06,25,17,04,30.90
2021,06,25,17,05,30.80
2021,06,25,17,06,30.80
2021,06,25,17,07,30.80
2021,06,25,17,08,30.80
2021,06,25,17,09,30.70
2021,06,25,17,10,30.70
2021,06,25,17,11,30.70
2021,06,25,17,12,30.70
2021,06,25,17,13,30.60
2021,06,25,17,14,30.60
2021,06,25,17,15,30.60
2021,06,25,17,16,30.60
2021,06,25,17,17,30.70
2021,06,25,17,18,30.70
2021,06,25,17,19,30.80